White Mountain, AK

8:23 PM AKDT on April 25, 2018 (GMT -0800)
White Mountain

Weather History for PAWM - November, 2013

Change the Weather History Date:

Monday, November 25, 2013

  Actual Average (PAOM) Record (PAOM)
Temperature  
Mean Temperature 10 °F -  
Max Temperature 14 °F 18 °F 37 °F (1943)
Min Temperature 5 °F 2 °F -26 °F (1928)
Degree Days  
Heating Degree Days 56    
Moisture  
Dew Point 4 °F    
Average Humidity 75    
Maximum Humidity 84    
Minimum Humidity 67    
Precipitation  
Precipitation 0.00 in - - ()
Sea Level Pressure  
Sea Level Pressure 29.98 in    
Wind  
Wind Speed 11 mph (North)    
Max Wind Speed 14 mph    
Max Gust Speed -    
Visibility 10 miles    
Events      
Averages and records for this station are not official NWS values.
T = Trace of Precipitation, MM = Missing Value Source: NWS Daily Summary

Daily Weather History Graph

Daily Weather History Graph

Search for Another Location

Airport or City:

Astronomy

Nov. 25, 2013 Rise Set
Actual Time 11:02 AM AKST 4:18 PM AKST
Civil Twilight 9:52 AM AKST 5:28 PM AKST
Nautical Twilight 8:47 AM AKST 6:33 PM AKST
Astronomical Twilight 7:48 AM AKST 7:32 PM AKST
Moon 12:28 AM AKST (11/25) 2:40 PM AKST (11/25)
Length of Visible Light 7h 35m
Length of Day
5h 16m
Waning Gibbous, 49% of the Moon is Illuminated
Nov 25
Waning Gibbous
Dec 2
New
Dec 9
First Quarter
Dec 17
Full
Dec 25
Last Quarter

Hourly Weather History & Observations

Time (AKST) Temp. Windchill Dew Point Humidity Pressure Visibility Wind Dir Wind Speed Gust Speed Precip Events Conditions
12:58 AM 5.0 °F -10.0 °F -0.0 °F 80% 30.03 in 10.0 mi North 10.4 mph - N/A   Clear
1:58 AM 6.1 °F -9.5 °F 1.9 °F 83% 30.02 in 10.0 mi North 11.5 mph - N/A   Clear
2:58 AM 7.0 °F -9.1 °F 3.0 °F 84% 30.01 in 10.0 mi North 12.7 mph - N/A   Clear
3:58 AM 7.0 °F -7.5 °F 3.0 °F 84% 30.00 in 10.0 mi North 10.4 mph - N/A   Clear
4:58 AM 7.0 °F -8.3 °F 3.0 °F 84% 29.99 in 10.0 mi North 11.5 mph - N/A   Clear
5:58 AM 9.0 °F -4.2 °F 3.9 °F 80% 30.00 in 10.0 mi North 9.2 mph - N/A   Partly Cloudy
6:58 AM 10.0 °F -4.5 °F 3.9 °F 76% 29.99 in 10.0 mi North 11.5 mph - N/A   Overcast
7:58 AM 10.9 °F -4.1 °F 5.0 °F 77% 29.98 in 10.0 mi North 12.7 mph - N/A   Overcast
8:58 AM 12.0 °F -2.7 °F 6.1 °F 77% 29.98 in 10.0 mi North 12.7 mph - N/A   Overcast
9:58 AM 12.0 °F -2.0 °F 6.1 °F 77% 29.98 in 10.0 mi North 11.5 mph - N/A   Overcast
10:58 AM 10.9 °F -3.4 °F 6.1 °F 81% 29.99 in 10.0 mi North 11.5 mph - N/A   Overcast
11:58 AM 12.0 °F -3.4 °F 3.9 °F 70% 29.98 in 10.0 mi North 13.8 mph - N/A   Overcast
12:58 PM 10.9 °F -3.4 °F 3.9 °F 73% 29.98 in 10.0 mi North 11.5 mph - N/A   Overcast
1:58 PM 10.0 °F -5.2 °F 3.0 °F 73% 29.97 in 10.0 mi North 12.7 mph - N/A   Partly Cloudy
2:58 PM 10.9 °F -3.4 °F 3.0 °F 70% 29.96 in 10.0 mi North 11.5 mph - N/A   Clear
3:58 PM 9.0 °F -6.6 °F 1.9 °F 73% 29.96 in 10.0 mi North 12.7 mph - N/A   Clear
4:41 PM 8.6 °F -6.3 °F 1.4 °F 73% 29.93 in 10.0 mi North 11.5 mph - N/A   Mostly Cloudy
4:58 PM 9.0 °F -5.9 °F 1.9 °F 73% 29.97 in 10.0 mi North 11.5 mph - N/A   Overcast
5:18 PM 10.4 °F -4.1 °F 1.4 °F 67% 29.93 in 10.0 mi North 11.5 mph - N/A   Overcast
5:42 PM 10.4 °F -4.1 °F 1.4 °F 67% 29.93 in 10.0 mi North 11.5 mph - N/A   Overcast
5:58 PM 10.0 °F -4.5 °F 3.0 °F 73% 29.97 in 10.0 mi North 11.5 mph - N/A   Overcast
6:58 PM 10.9 °F -0.8 °F 3.9 °F 73% 29.98 in 10.0 mi North 8.1 mph - N/A   Overcast
7:58 PM 12.0 °F -1.3 °F 5.0 °F 73% 29.98 in 10.0 mi North 10.4 mph - 0.00 in   Overcast
8:20 PM 12.2 °F -0.2 °F 5.0 °F 73% 29.95 in 10.0 mi North 9.2 mph - N/A   Overcast
8:58 PM 12.0 °F -0.4 °F 5.0 °F 73% 29.98 in 10.0 mi North 9.2 mph - N/A   Overcast
9:58 PM 12.9 °F 3.8 °F 6.1 °F 74% 29.99 in 10.0 mi North 5.8 mph - N/A   Overcast
10:50 PM 14.0 °F 6.5 °F 6.8 °F 73% 29.97 in 10.0 mi North 4.6 mph - N/A   Overcast
10:58 PM 14.0 °F 6.5 °F 7.0 °F 74% 30.01 in 10.0 mi North 4.6 mph - N/A   Overcast
11:58 PM 14.0 °F 3.9 °F 7.0 °F 74% 30.01 in 10.0 mi North 6.9 mph - N/A   Overcast